Weather History for Fort Knox, KY

Change the Weather History Date:

Friday, March 1, 2013

  Actual Average Record
Temperature  
Mean Temperature 34 °F -  
Max Temperature 37 °F 48 °F 73 °F (2006)
Min Temperature 32 °F 30 °F 21 °F (2001)
Degree Days  
Heating Degree Days 30    
Moisture  
Dew Point 32 °F    
Average Humidity 92    
Maximum Humidity 100    
Minimum Humidity 81    
Precipitation  
Precipitation 0.02 in - - ()
Sea Level Pressure  
Sea Level Pressure 30.01 in    
Wind  
Wind Speed 6 mph (WNW)    
Max Wind Speed 13 mph    
Max Gust Speed -    
Visibility 6 miles    
Events Snow    
Averages and records for this station are not official NWS values.
T = Trace of Precipitation, MM = Missing Value Source: NWS Daily Summary

Daily Weather History Graph

Daily Weather History Graph

Search for Another Location

Airport:

Trip Planner

Search our weather history database for the weather conditions in past years. The results will help you decide how hot, cold, wet, or windy it might be!

Date:

Astronomy

Mar. 01, 2013 Rise Set
Actual Time 7:15 AM EST 6:37 PM EST
Civil Twilight 6:48 AM EST 7:04 PM EST
Nautical Twilight 6:18 AM EST 7:34 PM EST
Astronomical Twilight 5:47 AM EST 8:05 PM EST
Moon 11:04 PM EST (3/1) 9:06 AM EST (3/1)
Length of Visible Light 12h 15m
Length of Day
11h 22m
Waning Gibbous, 83% of the Moon is Illuminated
Mar 1
Waning Gibbous
Mar 4
Last Quarter
Mar 11
New
Mar 19
First Quarter
Mar 27
Full

Hourly Weather History & Observations

Time (EST) Temp. Windchill Dew Point Humidity Pressure Visibility Wind Dir Wind Speed Gust Speed Precip Events Conditions
12:23 AM 33.8 °F 27.7 °F 32.0 °F 93% 29.99 in 5.0 mi West 6.9 mph - N/A Snow Light Snow
12:55 AM 33.3 °F 27.9 °F 32.0 °F 95% 29.99 in 5.0 mi West 5.8 mph - 0.01 in Snow Light Snow
1:14 AM 33.8 °F 28.6 °F 32.0 °F 93% 30.00 in 5.0 mi West 5.8 mph - N/A   Overcast
1:29 AM 33.8 °F 29.6 °F 32.0 °F 93% 30.00 in 5.0 mi West 4.6 mph - N/A Snow Light Snow
1:39 AM 33.8 °F 28.6 °F 32.0 °F 93% 30.00 in 5.0 mi West 5.8 mph - N/A   Overcast
1:55 AM 33.4 °F 27.3 °F 32.5 °F 96% 29.99 in 6.0 mi WNW 6.9 mph - 0.00 in   Overcast
2:05 AM 33.8 °F 27.7 °F 32.0 °F 93% 29.99 in 7.0 mi WNW 6.9 mph - N/A   Overcast
2:12 AM 33.8 °F 27.7 °F 32.0 °F 93% 29.99 in 7.0 mi West 6.9 mph - N/A   Overcast
2:13 AM 33.8 °F 28.6 °F 32.0 °F 93% 29.99 in 7.0 mi West 5.8 mph - N/A   Overcast
2:17 AM 33.8 °F 28.6 °F 32.0 °F 93% 29.99 in 6.0 mi WNW 5.8 mph - N/A   Overcast
2:54 AM 33.8 °F 28.6 °F 32.0 °F 93% 29.99 in 6.0 mi West 5.8 mph - N/A   Overcast
2:55 AM 33.6 °F 29.4 °F 32.5 °F 96% 29.99 in 6.0 mi West 4.6 mph - 0.00 in   Overcast
3:55 AM 33.3 °F 27.9 °F 32.5 °F 97% 29.98 in 5.0 mi West 5.8 mph - 0.00 in Snow Light Snow
4:19 AM 33.8 °F 28.6 °F 32.0 °F 93% 29.98 in 5.0 mi WNW 5.8 mph - N/A   Overcast
4:55 AM 33.3 °F 27.9 °F 32.5 °F 97% 29.99 in 8.0 mi WNW 5.8 mph - 0.00 in   Overcast
5:05 AM 33.8 °F 28.6 °F 32.0 °F 93% 29.99 in 9.0 mi WNW 5.8 mph - N/A   Overcast
5:06 AM 33.8 °F 29.6 °F 32.0 °F 93% 29.99 in 9.0 mi WNW 4.6 mph - N/A   Overcast
5:12 AM 33.8 °F 29.6 °F 32.0 °F 93% 29.99 in 9.0 mi WNW 4.6 mph - N/A   Overcast
5:25 AM 33.8 °F 29.6 °F 32.0 °F 93% 29.99 in 9.0 mi West 4.6 mph - N/A   Overcast
5:55 AM 33.3 °F 28.9 °F 32.2 °F 96% 29.99 in 9.0 mi WNW 4.6 mph - 0.00 in Snow Light Snow
6:12 AM 33.8 °F 30.8 °F 32.0 °F 93% 29.99 in 8.0 mi WNW 3.5 mph - N/A Snow Light Snow
6:14 AM 33.8 °F 30.8 °F 32.0 °F 93% 30.00 in 7.0 mi WNW 3.5 mph - N/A Snow Light Snow
6:31 AM 33.8 °F 30.8 °F 32.0 °F 93% 29.99 in 8.0 mi Variable 3.5 mph - N/A Snow Light Snow
6:33 AM 33.8 °F 29.6 °F 32.0 °F 93% 29.99 in 8.0 mi WNW 4.6 mph - N/A Snow Light Snow
6:34 AM 33.8 °F 28.6 °F 32.0 °F 93% 29.99 in 8.0 mi WNW 5.8 mph - N/A Snow Light Snow
6:45 AM 33.8 °F 30.8 °F 32.0 °F 93% 29.99 in 9.0 mi NW 3.5 mph - N/A Snow Light Snow
6:48 AM 33.8 °F 29.6 °F 32.0 °F 93% 29.99 in 9.0 mi WNW 4.6 mph - N/A Snow Light Snow
6:49 AM 33.8 °F 30.8 °F 32.0 °F 93% 29.99 in 9.0 mi WNW 3.5 mph - N/A Snow Light Snow
6:52 AM 33.8 °F 30.8 °F 32.0 °F 93% 30.00 in 8.0 mi WNW 3.5 mph - N/A Snow Light Snow
6:55 AM 32.9 °F 29.8 °F 31.8 °F 96% 30.00 in 7.0 mi WNW 3.5 mph - 0.00 in Snow Light Snow
7:11 AM 32.0 °F 27.5 °F 32.0 °F 100% 30.00 in 8.0 mi NW 4.6 mph - N/A Snow Light Snow
7:13 AM 32.0 °F 26.4 °F 32.0 °F 100% 30.00 in 8.0 mi WNW 5.8 mph - N/A Snow Light Snow
7:29 AM 32.0 °F 27.5 °F 32.0 °F 100% 30.00 in 5.0 mi WNW 4.6 mph - N/A Snow Light Snow
7:30 AM 32.0 °F 27.5 °F 32.0 °F 100% 30.00 in 5.0 mi NW 4.6 mph - N/A Snow Light Snow
7:46 AM 32.0 °F 28.7 °F 32.0 °F 100% 30.01 in 2.5 mi WNW 3.5 mph - N/A Snow Light Snow
7:55 AM 32.5 °F 29.3 °F 31.3 °F 95% 30.01 in 2.0 mi WNW 3.5 mph - 0.00 in Snow Light Snow
8:05 AM 32.0 °F 27.5 °F 32.0 °F 100% 30.01 in 3.0 mi WNW 4.6 mph - N/A Snow Light Snow
8:19 AM 32.0 °F 27.5 °F 32.0 °F 100% 30.02 in 3.0 mi NW 4.6 mph - N/A Snow Light Snow
8:30 AM 32.0 °F 27.5 °F 32.0 °F 100% 30.02 in 3.0 mi NW 4.6 mph - N/A Snow Light Snow
8:32 AM 32.0 °F 27.5 °F 32.0 °F 100% 30.02 in 3.0 mi WNW 4.6 mph - N/A Snow Light Snow
8:35 AM 32.0 °F 27.5 °F 32.0 °F 100% 30.02 in 3.0 mi NW 4.6 mph - N/A Snow Light Snow
8:37 AM 32.0 °F 27.5 °F 32.0 °F 100% 30.02 in 3.0 mi WNW 4.6 mph - N/A Snow Light Snow
8:55 AM 32.4 °F 26.9 °F 31.3 °F 96% 30.03 in 3.0 mi NW 5.8 mph - 0.00 in Snow Light Snow
8:56 AM 32.0 °F 26.4 °F 32.0 °F 100% 30.03 in 3.0 mi NW 5.8 mph - N/A Snow Light Snow
9:03 AM 32.0 °F 27.5 °F 32.0 °F 100% 30.03 in 3.0 mi NW 4.6 mph - N/A Snow Light Snow
9:07 AM 32.0 °F 27.5 °F 32.0 °F 100% 30.03 in 3.0 mi NW 4.6 mph - N/A Snow Light Snow
9:13 AM 32.0 °F 27.5 °F 32.0 °F 100% 30.03 in 3.0 mi NW 4.6 mph - N/A Snow Light Snow
9:19 AM 32.0 °F 27.5 °F 32.0 °F 100% 30.03 in 3.0 mi WNW 4.6 mph - N/A Snow Light Snow
9:30 AM 32.0 °F 27.5 °F 32.0 °F 100% 30.03 in 4.0 mi NW 4.6 mph - N/A Snow Light Snow
9:55 AM 33.3 °F 28.9 °F 32.0 °F 95% 30.03 in 6.0 mi NW 4.6 mph - 0.01 in Snow Light Snow
12:28 PM 35.6 °F 31.7 °F 32.0 °F 87% 30.03 in 10.0 mi WNW 4.6 mph - N/A Snow Light Snow
12:30 PM 35.6 °F 31.7 °F 32.0 °F 87% 30.03 in 10.0 mi West 4.6 mph - N/A Snow Light Snow
12:31 PM 35.6 °F 30.7 °F 32.0 °F 87% 30.03 in 10.0 mi WNW 5.8 mph - N/A Snow Light Snow
12:33 PM 37.4 °F 32.8 °F 32.0 °F 81% 30.02 in 10.0 mi Variable 5.8 mph - N/A   Overcast
12:35 PM 37.4 °F 32.1 °F 32.0 °F 81% 30.02 in 10.0 mi WNW 6.9 mph - N/A Snow Light Snow
12:45 PM 35.6 °F 29.9 °F 32.0 °F 87% 30.02 in 9.0 mi NW 6.9 mph - N/A Snow Light Snow
12:52 PM 35.6 °F 31.7 °F 32.0 °F 87% 30.02 in 9.0 mi NW 4.6 mph - N/A   Overcast
12:55 PM 35.8 °F 31.9 °F 33.1 °F 90% 30.02 in 9.0 mi NW 4.6 mph - 0.00 in Snow Light Snow
12:59 PM 35.6 °F 29.2 °F 33.8 °F 93% 30.02 in 10.0 mi WNW 8.1 mph - N/A Snow Light Snow
1:03 PM 35.6 °F 29.9 °F 33.8 °F 93% 30.02 in 10.0 mi NNW 6.9 mph - N/A Snow Light Snow
1:04 PM 35.6 °F 29.2 °F 32.0 °F 87% 30.02 in 10.0 mi NNW 8.1 mph - N/A Snow Light Snow
1:06 PM 35.6 °F 29.2 °F 32.0 °F 87% 30.02 in 10.0 mi NW 8.1 mph - N/A Snow Light Snow
1:08 PM 35.6 °F 29.9 °F 32.0 °F 87% 30.02 in 10.0 mi NW 6.9 mph - N/A Snow Light Snow
1:09 PM 35.6 °F 29.9 °F 32.0 °F 87% 30.02 in 10.0 mi NW 6.9 mph - N/A Snow Light Snow
1:18 PM 35.6 °F 29.9 °F 33.8 °F 93% 30.01 in 10.0 mi WNW 6.9 mph - N/A   Overcast
1:37 PM 37.4 °F 32.8 °F 33.8 °F 87% 30.01 in 10.0 mi West 5.8 mph - N/A   Overcast
1:38 PM 37.4 °F 32.1 °F 33.8 °F 87% 30.01 in 10.0 mi WNW 6.9 mph - N/A   Overcast
1:40 PM 37.4 °F 30.8 °F 33.8 °F 87% 30.01 in 10.0 mi WNW 9.2 mph - N/A   Overcast
1:46 PM 37.4 °F 30.3 °F 32.0 °F 81% 30.01 in 10.0 mi WNW 10.4 mph - N/A   Overcast
1:49 PM 37.4 °F 29.3 °F 32.0 °F 81% 30.01 in 9.0 mi NW 12.7 mph - N/A   Overcast
1:53 PM 35.6 °F 28.0 °F 32.0 °F 87% 30.01 in 4.0 mi NW 10.4 mph - N/A Snow Light Snow
1:55 PM 35.4 °F 29.7 °F 31.8 °F 87% 30.01 in 4.0 mi NW 6.9 mph - 0.00 in Snow Light Snow
1:59 PM 35.6 °F 29.9 °F 32.0 °F 87% 30.01 in 3.0 mi NW 6.9 mph - N/A Snow Light Snow
2:27 PM 35.6 °F 29.9 °F 33.8 °F 93% 30.00 in 10.0 mi NW 6.9 mph - N/A   Overcast
2:30 PM 35.6 °F 31.7 °F 32.0 °F 87% 29.97 in 5.0 mi WNW 4.6 mph - N/A   Overcast
2:37 PM 35.6 °F 29.2 °F 33.8 °F 93% 30.00 in 10.0 mi North 8.1 mph - N/A Snow Light Snow
2:43 PM 35.6 °F 30.7 °F 32.0 °F 87% 29.97 in 5.0 mi NNW 5.8 mph - N/A   Overcast
2:55 PM 36.3 °F 30.1 °F 32.9 °F 87% 30.00 in 5.0 mi NW 8.1 mph - 0.00 in   Overcast
3:14 PM 37.4 °F 32.8 °F 32.0 °F 81% 29.97 in 7.0 mi WNW 5.8 mph - N/A   Overcast
3:34 PM 37.4 °F 30.8 °F 32.0 °F 81% 29.97 in 3.0 mi WNW 9.2 mph - N/A Snow Light Snow
3:37 PM 37.4 °F 30.8 °F 32.0 °F 81% 29.97 in 2.0 mi West 9.2 mph - N/A Snow Light Snow
3:55 PM 36.0 °F 31.1 °F 32.9 °F 89% 30.00 in 5.0 mi West 5.8 mph - 0.00 in Snow Light Snow
4:39 PM 37.4 °F 30.8 °F 32.0 °F 81% 29.97 in 3.0 mi WNW 9.2 mph - N/A Snow Light Snow
4:52 PM 37.4 °F 30.3 °F 32.0 °F 81% 29.97 in 2.0 mi NW 10.4 mph - N/A Snow Light Snow
4:55 PM 34.9 °F 27.7 °F 32.4 °F 91% 30.01 in 2.5 mi WNW 9.2 mph - 0.00 in Snow Light Snow
5:11 PM 35.6 °F 28.6 °F 32.0 °F 87% 29.97 in 3.0 mi West 9.2 mph - N/A Snow Light Snow
5:51 PM 35.6 °F 30.7 °F 32.0 °F 87% 29.98 in 4.0 mi West 5.8 mph - N/A   Overcast
5:55 PM 35.1 °F 30.1 °F 31.8 °F 88% 30.01 in 5.0 mi WNW 5.8 mph - 0.00 in   Overcast
6:11 PM 33.8 °F 25.8 °F 32.0 °F 93% 29.99 in 7.0 mi WNW 10.4 mph - N/A   Overcast
6:48 PM 32.0 °F 26.4 °F 32.0 °F 100% 30.00 in 2.5 mi NW 5.8 mph - N/A Snow Light Snow
6:55 PM 33.4 °F 26.6 °F 30.9 °F 90% 30.03 in 2.5 mi NW 8.1 mph - 0.00 in Snow Light Snow
7:55 PM 32.4 °F 26.9 °F 30.6 °F 93% 30.04 in 2.0 mi WNW 5.8 mph - 0.00 in Snow Light Snow
8:55 PM 32.2 °F 25.0 °F 30.7 °F 94% 30.04 in 2.0 mi WNW 8.1 mph - 0.00 in Snow Light Snow
9:55 PM 32.2 °F 27.7 °F 30.7 °F 94% 30.04 in 2.0 mi WNW 4.6 mph - 0.00 in Snow Light Snow
10:55 PM 32.2 °F 26.7 °F 30.7 °F 94% 30.04 in 2.0 mi West 5.8 mph - 0.00 in Snow Light Snow
10:56 PM 32.0 °F 26.4 °F 30.2 °F 93% 30.04 in 9.0 mi West 5.8 mph - N/A Snow Light Snow
11:12 PM 32.0 °F 27.5 °F 30.2 °F 93% 30.04 in 10.0 mi West 4.6 mph - N/A   Overcast
11:29 PM 32.0 °F 27.5 °F 30.2 °F 93% 30.04 in 9.0 mi West 4.6 mph - N/A Snow Light Snow
11:46 PM 32.0 °F 26.4 °F 30.2 °F 93% 30.04 in 7.0 mi West 5.8 mph - N/A Snow Light Snow
11:55 PM 32.0 °F 27.5 °F 30.7 °F 95% 30.03 in 4.0 mi West 4.6 mph - 0.00 in Snow Light Snow